User: anonymous   Login
Location: Caltech
(34.1382°N, 118.1253°W)
Time: 17:22:13
(UTC-07:00)
Language:

Iridium 91 - Orbit

View from above orbital plane
View from above orbital plane
View from above satellite
View from above satellite

Ground track
Ground track

The orbit data is extracted from the following two-line orbital elements,

1 27372U 02005A   14304.15460962  .00000291  00000-0  96709-4 0  5503
2 27372 086.3962 328.9967 0003237 119.5781 303.9978 14.34220154674022
Epoch (UTC): 31 October 2014 03:42:38
Eccentricity: 0.0003237
inclination: 86.3962°
perigee height: 775 km
apogee height: 780 km
right ascension of ascending node: 328.9967°
argument of perigee: 119.5781°
revolutions per day: 14.34220154
mean anomaly at epoch: 303.9978°
orbit number at epoch: 67402

The dashed part of the orbit path shows where the satellite is in the earth's shadow,  

DLR